[[{"header":{"parameterUnit":"m.s-1","parameterCategory":1,"la1":30.2991,"la2":30.254,"lo1":-89.0895,"lo2":-89.0444,"dy":0.0017,"dx":0.0017,"nx":28,"ny":28,"refTime":"2025-08-26T03:00:00:Z","depth":0,"parameterNumber":2,"parameterNumberName":"U-component_of_WINDS"},"data":[0,0,0,0,0,0,0,0,0,0,0,0,0,0,0,0,0,0,0,0,0,0,0,0,0,0,0,0,0,0,0,0,0,0,0,0,0,0,0,0,0,0,0,0,0,0,0,0,0,0,0,0,0,0,0,0,0,0,-3.1205,-3.1206,0,-3.1245,-3.1245,-3.1245,-3.1127,-3.1124,-3.112,-3.1117,-3.1156,-3.116,-3.1164,0,0,0,0,0,0,0,0,0,0,0,0,0,-3.1028,-3.1031,-3.1205,-3.1206,-3.1206,-3.1245,-3.1245,-3.1246,-3.1128,-3.1123,-3.1119,-3.1115,-3.1154,-3.1159,-3.1165,0,0,0,0,0,0,0,0,0,0,0,0,0,-3.109,-3.1033,-3.1205,-3.1152,-3.1148,-3.1244,-3.1245,-3.1246,-3.1129,-3.1123,-3.1118,-3.1113,-3.1152,-3.1159,-3.1165,-3.1314,0,0,-3.1185,-3.1188,0,0,0,0,0,0,0,0,-3.1086,-3.1096,-3.116,-3.1156,-3.1151,-3.1175,-3.1196,-3.1269,-3.113,-3.1136,-3.1117,-3.111,-3.1166,-3.1172,-3.1191,-3.1316,-3.1318,-3.1186,-3.119,-3.1193,-3.1195,0,0,0,0,0,0,0,-3.1082,-3.1094,-3.1221,-3.1161,-3.1156,-3.1126,-3.1129,-3.121,-3.1181,-3.1135,-3.1127,-3.1133,-3.1163,-3.1185,-3.1191,-3.1318,-3.1186,-3.1192,-3.1196,-3.1198,-3.1567,-3.1573,0,0,0,0,0,0,-3.1085,-3.1091,-3.122,-3.1222,-3.1105,-3.1134,-3.1137,-3.1173,-3.118,-3.1176,-3.1138,-3.1127,-3.1176,-3.1183,-3.1192,-3.1365,-3.1193,-3.1199,-3.1203,-3.1561,-3.1568,-3.1575,0,0,0,0,0,0,-3.1082,-3.1097,-3.1218,-3.1154,-3.1167,-3.1143,-3.1184,-3.1177,-3.1198,-3.1182,-3.1176,-3.1165,-3.1172,-3.1182,-3.1285,-3.1365,-3.1202,-3.1208,-3.1555,-3.1564,-3.1572,-3.1715,0,0,0,0,0,0,-3.1077,-3.1097,-3.1154,-3.1157,-3.1171,-3.1311,-3.1189,-3.1182,-3.121,-3.1197,-3.1206,-3.1202,-3.1169,-3.1275,-3.1291,-3.1371,-3.1213,-3.1547,-3.1559,-3.1569,-3.1703,-3.1728,-3.1749,0,0,0,0,0,-3.1071,-3.1192,-3.1157,-3.1173,-3.1242,-3.1316,-3.1324,-3.1284,-3.1217,-3.1273,-3.1263,-3.1202,-3.1355,-3.1287,-3.1304,-3.1387,-3.1542,-3.1555,-3.1568,-3.1693,-3.1723,-3.1748,0,0,0,0,0,0,-3.1199,-3.1192,-3.1152,-3.1278,-3.1299,-3.1296,-3.1365,-3.1317,-3.1356,-3.1342,-3.129,-3.1293,-3.1404,-3.1406,-3.1331,-3.1531,-3.1437,-3.1454,-3.1526,-3.1554,-3.1577,-3.1573,-3.1219,0,0,0,0,0,-3.1242,-3.1303,-3.1294,-3.1406,-3.1418,-3.1391,-3.1421,-3.1389,-3.1407,-3.1415,-3.1412,-3.1432,-3.1484,-3.1519,-3.1567,-3.1704,-3.1703,-3.1769,-3.1792,-3.1811,-3.1826,-3.1897,-3.1926,-3.1618,-3.1618,-3.1618,0,0,-3.1331,-3.1335,-3.1376,-3.1431,-3.1443,-3.1507,-3.1398,-3.1471,-3.1517,-3.1426,-3.1521,-3.1521,-3.1539,-3.1659,-3.1712,-3.1664,-3.1911,-3.1828,-3.1843,-3.1847,-3.1913,-3.1942,-3.1968,-3.1627,-3.1625,-3.1624,0,0,-3.1525,-3.1535,-3.1629,-3.1643,-3.1663,-3.1644,-3.1667,-3.1672,-3.1667,-3.1763,-3.1695,-3.1751,-3.1842,-3.1858,-3.1878,-3.208,-3.2025,-3.2097,-3.2216,-3.2286,-3.231,-3.2331,-3.2402,-3.2428,-3.2113,-3.2113,-3.2113,0,-3.1633,-3.1727,-3.1683,-3.176,-3.1786,-3.1707,-3.1801,-3.1817,-3.1852,-3.1871,-3.1817,-3.193,-3.1938,-3.206,-3.2109,-3.2129,-3.2152,-3.2095,-3.2311,-3.2331,-3.235,-3.2417,-3.2444,-3.2121,-3.2121,-3.212,-3.2119,0,-3.1858,-3.1924,-3.1998,-3.2033,-3.2067,-3.2153,-3.2122,-3.2162,-3.2127,-3.2114,-3.2212,-3.2218,-3.2265,-3.2292,-3.2258,-3.241,-3.2379,-3.2319,-3.2222,-3.2389,-3.245,-3.2476,-3.2134,-3.2131,-3.2128,-3.2126,0,0,-3.2131,-3.2142,-3.217,-3.2184,-3.2201,-3.2251,-3.2334,-3.238,-3.2414,-3.2442,-3.2508,-3.2588,-3.2532,-3.2556,-3.2523,-3.2585,-3.2743,-3.2517,-3.2517,-3.2557,-3.2908,-3.2951,-3.2981,-3.2708,-3.2712,-3.2716,-3.2906,0,-3.232,-3.2461,-3.2425,-3.2564,-3.2624,-3.2551,-3.2622,-3.264,-3.2631,-3.268,-3.2669,-3.2726,-3.265,-3.2663,-3.2722,-3.2712,-3.2812,-3.2698,-3.2767,-3.277,-3.2762,-3.3014,-3.3059,-3.3238,-3.293,-3.2934,-3.2937,0,-3.256,-3.2596,-3.2742,-3.2749,-3.2773,-3.2837,-3.2877,-3.2926,-3.2944,-3.2933,-3.296,-3.2915,-3.2995,-3.2901,-3.301,-3.2933,-3.296,-3.2959,-3.2965,-3.2968,-3.2862,-3.3021,-3.3294,-3.332,-3.2974,-3.2971,-3.2969,0,-3.2742,-3.2828,-3.2925,-3.2941,-3.2952,-3.2999,-3.3006,-3.3019,-3.3049,-3.3084,-3.3103,-3.3147,-3.317,-3.3205,-3.3174,-3.3108,-3.3287,-3.319,-3.3279,-3.328,-3.3317,-3.3315,-3.3596,-3.334,-3.3339,-3.3339,-3.3338,0,-3.2955,-3.3047,-3.3007,-3.3067,-3.3167,-3.3126,-3.3226,-3.3224,-3.3237,-3.3295,-3.3235,-3.3291,-3.3247,-3.3299,-3.3275,-3.3368,-3.338,-3.3372,-3.3363,-3.3375,-3.3376,-3.339,-3.3375,-3.3346,-3.3344,-3.3343,-3.3342,0,-3.3174,-3.3151,-3.3253,-3.3256,-3.3259,-3.3332,-3.3334,-3.3389,-3.3376,-3.345,-3.3465,-3.3445,-3.3503,-3.3475,-3.3536,-3.352,-3.3639,-3.3616,-3.3632,-3.3625,-3.3714,-3.3705,-3.4012,-3.4049,-3.3772,-3.3775,-3.3777,0,-3.331,-3.3378,-3.3389,-3.3424,-3.3435,-3.3492,-3.3523,-3.3485,-3.3519,-3.3546,-3.3598,-3.3651,-3.3691,-3.3787,-3.3777,-3.3823,-3.3798,-3.3903,-3.3804,-3.3814,-3.3797,-3.3792,-3.3797,-3.3921,-3.3925,-3.3927,-3.3929,0,-3.3553,-3.3539,-3.3586,-3.363,-3.3669,-3.3701,-3.3728,-3.376,-3.3723,-3.3765,-3.3823,-3.3855,-3.3917,-3.397,-3.401,-3.4016,-3.3966,-3.3961,-3.3983,-3.3994,-3.4,-3.3995,-3.3683,-3.3953,-3.3951,-3.3949,-3.3948,-3.3947,-3.3732,-3.379,-3.3806,-3.386,-3.3878,-3.3905,-3.3956,-3.3951,-3.3999,-3.4047,-3.4022,-3.409,-3.4108,-3.4157,-3.417,-3.4222,-3.418,-3.4213,-3.4221,-3.4229,-3.424,-3.3995,-3.423,-3.4229,-3.4228,-3.4228,-3.4227,0,-3.397,-3.3978,-3.4028,-3.4069,-3.4112,-3.4064,-3.4092,-3.413,-3.4191,-3.4212,-3.4253,-3.432,-3.4372,-3.4367,-3.4413,-3.4456,-3.4435,-3.4469,-3.4464,-3.4466,-3.4276,-3.425,-3.4486,-3.4486,-3.4486,-3.4486,-3.4486,-3.4486,-3.4098,-3.4192,-3.4181,-3.4282,-3.4289,-3.4356,-3.4376,-3.44,-3.4416,-3.4495,-3.4537,-3.4534,-3.4545,-3.4592,-3.4637,-3.4634,-3.4652,-3.4695,-3.4684,-3.4505,-3.448,-3.4455,-3.4431,-3.4701,-3.4701,-3.4869,-3.4871,-3.4872]},{"header":{"parameterUnit":"m.s-1","parameterCategory":1,"la1":30.2991,"la2":30.254,"lo1":-89.0895,"lo2":-89.0444,"dy":0.0017,"dx":0.0017,"nx":28,"ny":28,"refTime":"2025-08-26T03:00:00:Z","depth":0,"parameterNumber":3,"parameterNumberName":"V-component_of_WINDS"},"data":[0,0,0,0,0,0,0,0,0,0,0,0,0,0,0,0,0,0,0,0,0,0,0,0,0,0,0,0,0,0,0,0,0,0,0,0,0,0,0,0,0,0,0,0,0,0,0,0,0,0,0,0,0,0,0,0,0,0,-2.6787,-2.6788,0,-2.6861,-2.6862,-2.6863,-2.6862,-2.6861,-2.686,-2.6859,-2.693,-2.6933,-2.6936,0,0,0,0,0,0,0,0,0,0,0,0,0,-2.6642,-2.6645,-2.6787,-2.6788,-2.6789,-2.6861,-2.6862,-2.6863,-2.6862,-2.6861,-2.6859,-2.6858,-2.693,-2.6933,-2.6936,0,0,0,0,0,0,0,0,0,0,0,0,0,-2.6709,-2.6646,-2.6787,-2.6797,-2.6799,-2.6861,-2.6862,-2.6863,-2.6862,-2.6861,-2.6859,-2.6858,-2.6928,-2.6933,-2.6937,-2.6992,0,0,-2.695,-2.6951,0,0,0,0,0,0,0,0,-2.6705,-2.6714,-2.6795,-2.6797,-2.6799,-2.6851,-2.6837,-2.6906,-2.6862,-2.6838,-2.6859,-2.6857,-2.6905,-2.6911,-2.6928,-2.6995,-2.6998,-2.695,-2.6952,-2.6954,-2.6955,0,0,0,0,0,0,0,-2.6701,-2.6711,-2.6816,-2.6796,-2.6799,-2.6797,-2.6805,-2.685,-2.6878,-2.684,-2.684,-2.6849,-2.6906,-2.6924,-2.6929,-2.6999,-2.695,-2.6954,-2.6956,-2.6958,-2.7113,-2.7115,0,0,0,0,0,0,-2.6694,-2.6707,-2.6814,-2.6819,-2.6748,-2.6801,-2.681,-2.6835,-2.6878,-2.6883,-2.685,-2.6849,-2.6917,-2.6924,-2.6932,-2.6998,-2.6954,-2.6958,-2.6961,-2.7112,-2.7113,-2.7115,0,0,0,0,0,0,-2.6691,-2.6704,-2.6811,-2.6763,-2.6777,-2.6805,-2.6834,-2.6838,-2.6856,-2.6886,-2.6891,-2.6864,-2.6916,-2.6926,-2.6977,-2.7,-2.696,-2.6964,-2.711,-2.7112,-2.7114,-2.7131,0,0,0,0,0,0,-2.6687,-2.6703,-2.6725,-2.6764,-2.6779,-2.6856,-2.6835,-2.684,-2.6863,-2.6862,-2.69,-2.6905,-2.6916,-2.697,-2.6981,-2.7005,-2.6967,-2.7108,-2.7111,-2.7114,-2.7128,-2.7133,-2.7138,0,0,0,0,0,-2.6682,-2.6726,-2.6726,-2.6739,-2.6808,-2.6857,-2.6866,-2.6879,-2.6865,-2.6887,-2.6906,-2.6903,-2.6996,-2.6976,-2.6987,-2.7013,-2.7106,-2.711,-2.7113,-2.7126,-2.7132,-2.7138,0,0,0,0,0,0,-2.6689,-2.6732,-2.6732,-2.6791,-2.682,-2.6857,-2.6885,-2.6886,-2.6919,-2.6917,-2.6931,-2.6939,-2.6989,-2.7007,-2.6983,-2.7068,-2.7049,-2.7055,-2.7055,-2.7061,-2.7066,-2.706,-2.6971,0,0,0,0,0,-2.6698,-2.6736,-2.677,-2.6818,-2.6834,-2.6857,-2.6879,-2.6886,-2.6917,-2.693,-2.6952,-2.6982,-2.7017,-2.704,-2.7075,-2.7131,-2.7138,-2.7154,-2.7159,-2.7163,-2.7168,-2.7197,-2.7204,-2.7127,-2.7127,-2.7127,0,0,-2.6715,-2.6743,-2.6766,-2.6821,-2.6845,-2.6882,-2.6867,-2.6908,-2.6935,-2.6935,-2.6985,-2.7002,-2.7035,-2.7089,-2.7113,-2.7105,-2.7191,-2.7168,-2.7171,-2.7173,-2.7201,-2.7209,-2.7215,-2.7129,-2.7129,-2.7129,0,0,-2.6766,-2.6792,-2.6834,-2.6859,-2.6896,-2.6911,-2.6921,-2.6957,-2.6969,-2.7019,-2.702,-2.7052,-2.7113,-2.7136,-2.7156,-2.7215,-2.7213,-2.7226,-2.7251,-2.7279,-2.7285,-2.729,-2.731,-2.7317,-2.7231,-2.7231,-2.7231,0,-2.6783,-2.6841,-2.6856,-2.6896,-2.6919,-2.6922,-2.6964,-2.6987,-2.7032,-2.7047,-2.7038,-2.7114,-2.7137,-2.7194,-2.7209,-2.7225,-2.7236,-2.7221,-2.7283,-2.7289,-2.7294,-2.7312,-2.732,-2.7232,-2.7232,-2.7232,-2.7232,0,-2.6859,-2.6899,-2.6928,-2.6973,-2.7,-2.7041,-2.706,-2.7085,-2.709,-2.7105,-2.7155,-2.7182,-2.7222,-2.7236,-2.7241,-2.7294,-2.7288,-2.728,-2.7262,-2.7302,-2.732,-2.7327,-2.7234,-2.7233,-2.7233,-2.7233,0,0,-2.6916,-2.6969,-2.6979,-2.6999,-2.7039,-2.707,-2.711,-2.715,-2.717,-2.7201,-2.7234,-2.7285,-2.7278,-2.7301,-2.7309,-2.7334,-2.7376,-2.7323,-2.7324,-2.7331,-2.7434,-2.7439,-2.7447,-2.7376,-2.7377,-2.7378,-2.7431,0,-2.6971,-2.7044,-2.7057,-2.712,-2.7156,-2.7159,-2.7194,-2.7221,-2.7237,-2.7268,-2.7285,-2.7321,-2.731,-2.7323,-2.7348,-2.7366,-2.7397,-2.7363,-2.7405,-2.7406,-2.7395,-2.7456,-2.7461,-2.751,-2.7438,-2.7439,-2.744,0,-2.7044,-2.7077,-2.7144,-2.7178,-2.7194,-2.7225,-2.7262,-2.7292,-2.7323,-2.7332,-2.7357,-2.7362,-2.7402,-2.7382,-2.7437,-2.7413,-2.7431,-2.7442,-2.7444,-2.7447,-2.7425,-2.746,-2.7526,-2.7532,-2.7451,-2.7451,-2.745,0,-2.7077,-2.7139,-2.7186,-2.7203,-2.7245,-2.7267,-2.7285,-2.7314,-2.7337,-2.7368,-2.7382,-2.7418,-2.7437,-2.7464,-2.7477,-2.7462,-2.753,-2.7512,-2.7537,-2.7537,-2.755,-2.7549,-2.7619,-2.7564,-2.7564,-2.7564,-2.7564,0,-2.7135,-2.7175,-2.7201,-2.723,-2.7275,-2.729,-2.7333,-2.7351,-2.7377,-2.7408,-2.7413,-2.7441,-2.7458,-2.7489,-2.75,-2.7542,-2.7551,-2.7558,-2.756,-2.7557,-2.7556,-2.7568,-2.7565,-2.7566,-2.7566,-2.7565,-2.7565,0,-2.7179,-2.7199,-2.725,-2.7286,-2.7296,-2.7327,-2.7356,-2.7383,-2.7399,-2.7438,-2.7448,-2.7472,-2.7508,-2.7525,-2.7569,-2.7576,-2.7624,-2.7625,-2.7614,-2.7615,-2.7639,-2.7635,-2.7717,-2.7728,-2.7668,-2.7668,-2.7669,0,-2.7214,-2.7245,-2.7284,-2.7306,-2.7325,-2.736,-2.7383,-2.7399,-2.7422,-2.7459,-2.7481,-2.7518,-2.7548,-2.7606,-2.7626,-2.766,-2.766,-2.7687,-2.7665,-2.7661,-2.7659,-2.7656,-2.7658,-2.769,-2.7691,-2.7691,-2.7691,0,-2.7274,-2.7282,-2.7316,-2.7353,-2.738,-2.7409,-2.7438,-2.7455,-2.7475,-2.7501,-2.7539,-2.7562,-2.7608,-2.7644,-2.7679,-2.7696,-2.7696,-2.7698,-2.7706,-2.7702,-2.7694,-2.7697,-2.7623,-2.7696,-2.7695,-2.7695,-2.7695,-2.7695,-2.7314,-2.7341,-2.7372,-2.7409,-2.7433,-2.7459,-2.7486,-2.7505,-2.7537,-2.7577,-2.7583,-2.7623,-2.7652,-2.7699,-2.7717,-2.7747,-2.7741,-2.7752,-2.7755,-2.7757,-2.7757,-2.769,-2.7754,-2.7754,-2.7754,-2.7754,-2.7754,0,-2.7373,-2.7393,-2.7427,-2.7467,-2.7495,-2.7495,-2.7526,-2.755,-2.7585,-2.7612,-2.7642,-2.7685,-2.7719,-2.7742,-2.7777,-2.7796,-2.7797,-2.7804,-2.7802,-2.7806,-2.7762,-2.7751,-2.7803,-2.7803,-2.7803,-2.7803,-2.7803,-2.7803,-2.7406,-2.7452,-2.7463,-2.752,-2.7539,-2.7579,-2.7597,-2.7621,-2.7642,-2.769,-2.7719,-2.7734,-2.7759,-2.7795,-2.7826,-2.7832,-2.7844,-2.7851,-2.7856,-2.7815,-2.7809,-2.7804,-2.7794,-2.7854,-2.7854,-2.7898,-2.7898,-2.7898]}]]